Погода в Усуглях

Россия / Забайкальский край     52°39′08″N   115°15′24″E
темп.,
°C
ветер,
м/с
пор.,
м/с
влажн.,
%
обл.,
%
осадки,
мм/ч
давл.,
гПа
погр.,
м
29 мая, вс
вс2900:00+1сз227719 0.0 100235
03:000сз229310 0.0 100345
06:000зсз128912 0.0 100274
09:00+5сз346699 0.1 10011070
12:00+6ссз4566100 0.4 10001257
15:00+6с3475100 1.0 1001957
18:00+7с456693 0.4 10011174
21:00+3с388750 0.6 1003542
30 мая, пн
пн3000:00+2с378957 0.0 1004436
03:00+1ссз369139 0.0 1004180
06:00+2ссз2688100 0.0 1003296
09:00+7ссз586095 0.0 10001343
12:00+9ссз695688 0.1 9991535
15:00+10ссз6950100 0.2 9971746
18:00+11ссз594685 0.0 9961873
21:00+8ссз2376100 0.4 99852
31 мая, вт
вт3100:00+4с229060 0.0 100126
03:00+2сз229125 0.0 100217
06:00+2зсз22875 0.0 100336
09:00+11зсз13465 0.0 1000988
12:00+16сз352980 0.0 9982366
15:00+17зсз3427100 0.0 9962639
18:00+18всв232785 0.0 9952480
21:00+9юв238584 0.8 99983
1 июня, ср
ср100:00+6сз118896 0.0 100110
03:00+4сз1191100 0.0 100211
06:00+5зсз22845 0.0 100329
09:00+13з13545 0.0 1002841
12:00+17зсз243592 0.0 10002479
15:00+18ссз4730100 0.1 9992698
18:00+16с354189 0.0 9991156
21:00+12зсз115697 0.1 100010
2 июня, чт
чт200:00+7с227587 0.1 100326
03:00+5ссз22814 0.1 100424
06:00+5ссз24890 0.0 100688
09:00+12с455625 0.0 10041168
12:00+12ссв445659 0.1 10051099
15:00+14всв555263 0.1 10051431
18:00+13в455667 0.0 1005973
21:00+11св245933 0.0 1006107